EW9507 Weather Reports


Display with metric or nautical units.
time (UTC)temp
F
wind
direction
speed
MPH
gust
MPH
rain 1hr
in
rain 24hr
in
rain mn
in
humidity
%
barometer
mb
20260507020015 49 278 7.0 11.0 0.00 0.00 0.00 23 1013.5
20260507014515 50 276 6.0 13.0 0.00 0.00 0.00 21 1013.6
20260507013014 51 288 9.0 19.0 0.00 0.00 0.00 20 1013.6
20260507011510 52 305 13.0 19.0 0.00 0.00 0.00 19 1013.5
20260507010010 52 300 16.0 21.0 0.00 0.00 0.00 19 1013.5
20260507004508 53 285 15.0 21.0 0.00 0.00 0.00 20 1013.6
20260507003036 53 283 15.0 20.0 0.00 0.00 0.00 20 1013.8
20260507001534 53 276 13.0 21.0 0.00 0.00 0.00 21 1013.9
20260507000028 53 283 14.0 26.0 0.00 0.00 0.00 21 1014.1
20260506234530 53 259 15.0 20.0 0.00 0.00 0.00 20 1014.2
20260506233024 53 288 12.0 21.0 0.00 0.00 0.00 21 1014.6
20260506231523 52 265 16.0 23.0 0.00 0.00 0.00 22 1014.5
20260506230023 53 252 16.0 21.0 0.00 0.00 0.00 22 1014.7
20260506224510 52 286 14.0 23.0 0.00 0.00 0.00 21 1015.3
20260506223007 53 260 10.0 18.0 0.00 0.00 0.00 22 1015.5
20260506221501 51 252 11.0 16.0 0.00 0.00 0.00 24 1015.7
20260506220113 52 262 11.0 15.0 0.00 0.00 0.00 22 1016.0
20260506214551 51 262 8.0 15.0 0.00 0.00 0.00 24 1016.2
20260506213103 51 269 13.0 15.0 0.00 0.00 0.00 24 1016.6
20260506211542 50 238 12.0 15.0 0.00 0.00 0.00 26 1017.0
20260506210034 49 307 4.0 15.0 0.00 0.00 0.00 24 1017.4
20260506204534 48 262 10.0 14.0 0.00 0.00 0.00 24 1017.8
20260506203031 48 279 6.0 12.0 0.00 0.00 0.00 26 1018.0
20260506201529 48 279 5.0 14.0 0.00 0.00 0.00 24 1018.2
20260506200016 47 183 5.0 12.0 0.00 0.00 0.00 26 1018.4
20260506194509 46 290 9.0 13.0 0.00 0.00 0.00 26 1018.5
20260506193006 46 293 10.0 14.0 0.00 0.00 0.00 30 1018.8
20260506191504 45 283 4.0 15.0 0.00 0.00 0.00 32 1019.0
20260506190002 45 331 11.0 14.0 0.00 0.00 0.00 32 1019.3
20260506184625 45 303 8.0 16.0 0.00 0.00 0.00 31 1019.6
20260506183102 44 285 12.0 15.0 0.00 0.00 0.00 32 1019.8
20260506181554 44 300 12.0 19.0 0.00 0.00 0.00 31 1020.0
20260506180051 43 283 7.0 14.0 0.00 0.00 0.00 33 1020.2
20260506174543 43 308 11.0 16.0 0.00 0.00 0.00 34 1020.5
20260506173047 41 279 6.0 14.0 0.00 0.00 0.00 35 1020.5
20260506171552 42 315 10.0 16.0 0.00 0.00 0.00 37 1020.6
20260506170038 41 348 9.0 21.0 0.00 0.00 0.00 37 1020.8
20260506164529 40 291 5.0 16.0 0.00 0.00 0.00 38 1020.9
20260506163025 40 324 10.0 16.0 0.00 0.00 0.00 38 1020.9
20260506161624 39 318 13.0 20.0 0.00 0.00 0.00 39 1021.0
20260506160020 39 303 12.0 18.0 0.00 0.00 0.00 40 1021.2
20260506154519 38 1 7.0 19.0 0.00 0.00 0.00 40 1021.1
20260506153013 39 323 9.0 15.0 0.00 0.00 0.00 41 1021.2
20260506151509 38 322 9.0 17.0 0.00 0.00 0.00 43 1021.2
20260506150008 38 348 8.0 15.0 0.00 0.00 0.00 44 1021.3
20260506144501 37 329 7.0 15.0 0.00 0.00 0.00 45 1021.3
20260506143059 37 281 8.0 18.0 0.00 0.00 0.00 48 1021.4
20260506141556 37 302 10.0 16.0 0.00 0.00 0.00 48 1021.4
20260506140050 35 295 9.0 13.0 0.00 0.00 0.00 53 1021.4
20260506134540 34 264 10.0 13.0 0.00 0.00 0.00 57 1021.3
20260506133034 32 303 7.0 12.0 0.00 0.00 0.00 67 1021.3
20260506131524 29 288 6.0 8.0 0.00 0.00 0.00 77 1021.3
20260506130018 27 284 4.0 7.0 0.00 0.00 0.00 83 1021.2
20260506124538 23 288 3.0 5.0 0.00 0.00 0.00 85 1021.1
20260506123033 20 105 1.0 3.0 0.00 0.00 0.00 83 1021.0
20260506121503 18 148 1.0 3.0 0.00 0.00 0.00 83 1020.9
20260506120002 17 63 0.0 3.0 0.00 0.00 0.00 84 1021.0
20260506114558 17 59 1.0 2.0 0.00 0.00 0.00 84 1020.8
20260506113054 16 96 2.0 4.0 0.00 0.00 0.00 82 1020.7
20260506111551 15 112 1.0 3.0 0.00 0.00 0.00 83 1020.6
20260506110051 15 105 1.0 3.0 0.00 0.00 0.00 82 1020.6
20260506104545 16 117 2.0 3.0 0.00 0.00 0.00 82 1020.5
20260506103042 17 129 1.0 2.0 0.00 0.00 0.00 84 1020.5
20260506101543 16 164 0.0 2.0 0.00 0.00 0.00 84 1020.4
20260506100042 16 178 1.0 4.0 0.00 0.00 0.00 83 1020.3
20260506094532 16 188 0.0 3.0 0.00 0.00 0.00 83 1020.1
20260506093029 16 178 0.0 3.0 0.00 0.00 0.00 83 1020.1
20260506091527 17 178 1.0 3.0 0.00 0.00 0.00 82 1020.0
20260506090025 16 152 1.0 4.0 0.00 0.00 0.00 82 1020.0
20260506084622 17 182 4.0 5.0 0.00 0.00 0.00 82 1020.0
20260506083050 17 178 0.0 4.0 0.00 0.00 0.00 81 1019.9
20260506081550 18 178 3.0 5.0 0.00 0.00 0.00 83 1020.0
20260506073009 17 188 1.0 3.0 0.00 0.00 0.00 81 1019.7
20260506071507 18 178 4.0 8.0 0.00 0.00 0.00 79 1019.6
20260506061544 21 178 0.0 2.0 0.00 0.00 0.00 77 1019.3
20260506044527 28 295 2.0 3.0 0.00 0.00 0.00 64 1018.3
20260506043044 29 331 1.0 4.0 0.00 0.00 0.00 64 1018.1
20260506041543 29 1 1.0 5.0 0.00 0.00 0.00 63 1018.1
20260506040038 29 300 2.0 4.0 0.00 0.00 0.00 61 1018.0
20260506034539 30 310 2.0 4.0 0.00 0.00 0.00 61 1017.8
20260506033036 31 324 1.0 5.0 0.00 0.00 0.00 63 1017.5
20260506031536 32 20 3.0 6.0 0.00 0.00 0.00 60 1017.3
20260506030002 32 4 2.0 5.0 0.00 0.00 0.00 61 1016.9
20260506024600 33 334 2.0 4.0 0.00 0.00 0.00 59 1016.6
20260506023024 35 331 1.0 5.0 0.00 0.00 0.00 57 1016.2
20260506021524 36 1 5.0 13.0 0.00 0.00 0.00 55 1016.1